TimeCDT,TemperatureF,Dew PointF,Humidity,Sea Level PressureIn,VisibilityMPH,Wind Direction,Wind SpeedMPH,Gust SpeedMPH,PrecipitationIn,Events,Conditions,WindDirDegrees,DateUTC
12:15 AM,64.4,62.6,94,30.11,5.0,ENE,10.4,23.0,N/A,Rain,Light Rain,70,2013-06-21 05:15:00
12:35 AM,64.4,62.6,94,30.09,7.0,East,13.8,18.4,N/A,Rain,Light Rain,80,2013-06-21 05:35:00
12:55 AM,64.4,62.6,94,30.07,10.0,East,18.4,23.0,N/A,,Mostly Cloudy,90,2013-06-21 05:55:00
1:15 AM,64.4,62.6,94,30.04,10.0,East,19.6,24.2,N/A,,Scattered Clouds,100,2013-06-21 06:15:00
1:35 AM,64.4,62.6,94,30.03,10.0,ESE,18.4,23.0,N/A,,Clear,110,2013-06-21 06:35:00
1:55 AM,64.4,62.6,94,30.02,10.0,ESE,18.4,23.0,N/A,,Clear,110,2013-06-21 06:55:00
2:15 AM,64.4,62.6,94,30.01,10.0,ESE,15.0,19.6,N/A,,Clear,110,2013-06-21 07:15:00
2:35 AM,64.4,62.6,94,30.01,10.0,ESE,9.2,17.3,N/A,,Clear,120,2013-06-21 07:35:00
2:55 AM,64.4,62.6,94,30.00,10.0,ESE,11.5,16.1,N/A,,Clear,120,2013-06-21 07:55:00
3:15 AM,64.4,62.6,94,30.01,10.0,SE,9.2,-,N/A,,Clear,130,2013-06-21 08:15:00
3:35 AM,64.4,62.6,94,29.99,10.0,SSE,9.2,-,N/A,,Scattered Clouds,150,2013-06-21 08:35:00
3:55 AM,64.4,62.6,94,29.98,7.0,SE,12.7,20.7,N/A,Rain,Light Rain,140,2013-06-21 08:55:00
4:15 AM,64.4,62.6,94,29.96,7.0,SE,12.7,24.2,N/A,Rain,Light Rain,140,2013-06-21 09:15:00
4:35 AM,64.4,60.8,88,29.95,7.0,SE,12.7,20.7,N/A,,Clear,130,2013-06-21 09:35:00
4:55 AM,64.4,62.6,94,29.90,7.0,ESE,15.0,21.9,N/A,,Light Drizzle,120,2013-06-21 09:55:00
5:15 AM,64.4,62.6,94,29.92,10.0,SE,12.7,20.7,N/A,Rain,Light Rain,130,2013-06-21 10:15:00
5:35 AM,64.4,62.6,94,29.88,7.0,ESE,12.7,19.6,N/A,,Mostly Cloudy,120,2013-06-21 10:35:00
5:55 AM,64.4,62.6,94,29.85,7.0,East,13.8,-,N/A,Rain,Light Rain,100,2013-06-21 10:55:00
6:15 AM,66.2,62.6,88,29.86,3.0,SE,13.8,20.7,N/A,Rain,Heavy Rain,140,2013-06-21 11:15:00
6:35 AM,66.2,64.4,94,29.93,0.8,NNW,8.1,29.9,N/A,Rain,Heavy Rain,340,2013-06-21 11:35:00
6:55 AM,66.2,64.4,94,29.94,7.0,SE,4.6,-,N/A,Rain,Light Rain,130,2013-06-21 11:55:00
7:15 AM,66.2,62.6,88,29.91,5.0,SSE,5.8,-,N/A,Rain,Heavy Rain,150,2013-06-21 12:15:00
7:35 AM,64.4,62.6,94,29.86,7.0,ESE,11.5,-,N/A,Rain,Rain,120,2013-06-21 12:35:00
7:55 AM,64.4,62.6,94,29.83,10.0,SE,13.8,19.6,N/A,Rain,Light Rain,140,2013-06-21 12:55:00
8:15 AM,64.4,62.6,94,29.82,10.0,SSE,13.8,19.6,N/A,Rain,Light Rain,150,2013-06-21 13:15:00
8:35 AM,64.4,62.6,94,29.77,10.0,SE,13.8,25.3,N/A,Rain,Light Rain,140,2013-06-21 13:35:00
8:55 AM,64.4,62.6,94,29.80,10.0,South,9.2,19.6,N/A,,Mostly Cloudy,170,2013-06-21 13:55:00
9:15 AM,64.4,62.6,94,29.78,10.0,SSE,11.5,20.7,N/A,,Mostly Cloudy,160,2013-06-21 14:15:00
9:35 AM,64.4,62.6,94,29.80,10.0,WSW,3.5,-,N/A,,Mostly Cloudy,240,2013-06-21 14:35:00
9:55 AM,64.4,62.6,94,29.82,10.0,NW,6.9,-,N/A,,Overcast,310,2013-06-21 14:55:00
10:15 AM,64.4,62.6,94,29.85,10.0,WNW,6.9,-,N/A,,Mostly Cloudy,290,2013-06-21 15:15:00
10:35 AM,66.2,62.6,88,29.86,10.0,NW,4.6,-,N/A,,Scattered Clouds,310,2013-06-21 15:35:00
10:55 AM,66.2,62.6,88,29.88,10.0,WSW,5.8,-,N/A,,Mostly Cloudy,240,2013-06-21 15:55:00
11:15 AM,66.2,62.6,88,29.90,10.0,WSW,9.2,-,N/A,,Overcast,250,2013-06-21 16:15:00
11:35 AM,66.2,62.6,88,29.90,10.0,WSW,9.2,-,N/A,,Overcast,240,2013-06-21 16:35:00
11:55 AM,66.2,62.6,88,29.90,10.0,WSW,11.5,-,N/A,,Overcast,250,2013-06-21 16:55:00
12:15 PM,66.2,62.6,88,29.90,10.0,WSW,10.4,-,N/A,,Overcast,250,2013-06-21 17:15:00
12:35 PM,66.2,62.6,88,29.90,10.0,West,8.1,-,N/A,,Overcast,260,2013-06-21 17:35:00
12:55 PM,68.0,64.4,88,29.90,10.0,WSW,8.1,-,N/A,,Overcast,250,2013-06-21 17:55:00
1:35 PM,69.8,64.4,83,29.92,10.0,WSW,11.5,-,N/A,,Overcast,250,2013-06-21 18:35:00
2:15 PM,69.8,64.4,83,29.93,10.0,WSW,13.8,-,N/A,,Overcast,250,2013-06-21 19:15:00
2:35 PM,68.0,64.4,88,29.93,10.0,West,13.8,-,N/A,,Overcast,270,2013-06-21 19:35:00
2:55 PM,69.8,64.4,83,29.93,10.0,West,13.8,17.3,N/A,,Overcast,280,2013-06-21 19:55:00
3:15 PM,69.8,64.4,83,29.94,10.0,West,16.1,19.6,N/A,,Overcast,280,2013-06-21 20:15:00
3:35 PM,69.8,64.4,83,29.95,10.0,WNW,9.2,19.6,N/A,,Overcast,290,2013-06-21 20:35:00
3:55 PM,69.8,64.4,83,29.96,10.0,WNW,9.2,-,N/A,,Overcast,290,2013-06-21 20:55:00
4:15 PM,69.8,64.4,83,29.96,10.0,WNW,9.2,-,N/A,,Overcast,300,2013-06-21 21:15:00
4:35 PM,69.8,64.4,83,29.97,10.0,WNW,11.5,-,N/A,,Overcast,290,2013-06-21 21:35:00
4:55 PM,69.8,64.4,83,29.98,10.0,West,10.4,-,N/A,,Overcast,270,2013-06-21 21:55:00
5:15 PM,71.6,64.4,78,29.98,10.0,West,11.5,-,N/A,,Overcast,280,2013-06-21 22:15:00
5:35 PM,71.6,64.4,78,29.98,10.0,West,11.5,-,N/A,,Mostly Cloudy,280,2013-06-21 22:35:00
5:55 PM,71.6,64.4,78,29.97,10.0,NW,9.2,-,N/A,,Scattered Clouds,310,2013-06-21 22:55:00
6:15 PM,71.6,66.2,83,29.99,10.0,West,8.1,-,N/A,,Scattered Clouds,270,2013-06-21 23:15:00
6:35 PM,71.6,64.4,78,29.99,10.0,WNW,6.9,-,N/A,,Scattered Clouds,290,2013-06-21 23:35:00
6:55 PM,71.6,64.4,78,30.00,10.0,WNW,4.6,-,N/A,,Scattered Clouds,300,2013-06-21 23:55:00
7:15 PM,71.6,66.2,83,30.00,10.0,NNW,3.5,-,N/A,,Clear,330,2013-06-22 00:15:00
7:35 PM,69.8,66.2,88,30.01,10.0,NW,4.6,-,N/A,,Scattered Clouds,310,2013-06-22 00:35:00
7:55 PM,69.8,64.4,83,30.02,10.0,Calm,Calm,-,N/A,,Mostly Cloudy,0,2013-06-22 00:55:00
8:15 PM,69.8,64.4,83,30.02,10.0,Calm,Calm,-,N/A,,Scattered Clouds,0,2013-06-22 01:15:00
8:35 PM,68.0,64.4,88,30.03,10.0,West,3.5,-,N/A,,Scattered Clouds,260,2013-06-22 01:35:00
9:15 PM,66.2,64.4,94,30.04,10.0,Calm,Calm,-,N/A,,Overcast,0,2013-06-22 02:15:00
9:35 PM,66.2,64.4,94,30.05,10.0,Calm,Calm,-,N/A,,Mostly Cloudy,0,2013-06-22 02:35:00
9:55 PM,66.2,64.4,94,30.06,10.0,Calm,Calm,-,N/A,,Mostly Cloudy,0,2013-06-22 02:55:00
10:15 PM,66.2,64.4,94,30.09,10.0,NW,9.2,-,N/A,,Mostly Cloudy,310,2013-06-22 03:15:00
10:35 PM,66.2,64.4,94,30.08,10.0,NNW,8.1,-,N/A,,Scattered Clouds,330,2013-06-22 03:35:00
10:55 PM,66.2,62.6,88,30.08,10.0,NNW,5.8,-,N/A,,Scattered Clouds,340,2013-06-22 03:55:00
11:15 PM,64.4,62.6,94,30.08,10.0,NW,4.6,-,N/A,,Scattered Clouds,320,2013-06-22 04:15:00
11:35 PM,64.4,62.6,94,30.05,10.0,NNE,5.8,-,N/A,,Mostly Cloudy,20,2013-06-22 04:35:00
11:55 PM,64.4,62.6,94,30.06,10.0,Calm,Calm,-,N/A,,Overcast,0,2013-06-22 04:55:00